SPACEMOBILE-002

Last updated on Sun Aug 09 2026 00:02:10 GMT+0000 (Coordinated Universal Time)

1 61048U 24163D 26219.90734665 .00008779 00000+0 41064-3 0 9993 2 61048 52.9720 71.3548 0004683 262.8756 97.1706 15.20515601105632
UTC large
Height (km)
Speed (km/s)
/
Latitude / Longitude
Inclination (degrees)
Orbital Period (minutes)
Azimuth
Elevation
Range (km)
Doppler Factor

Next 0 passes for location: London (51.5072 / 0.1276)

No passes found over London.
SPACEMOBILE-002